Simultaneous Nadir Overpasses (SNOs) Predictions

Prediction of SNOs between GOES-14 and NOAA-20 Satellite Orbit:

Table of predicted SNOs for the next 14.0 days since TLE Epoch: 12/18/2021
Index Date Time (GOES-14) GOES-14 Lat,Lon NOAA-20 Lat,Lon Distance(km) Time Diff (sec)
1 12/18/2021 20:26:27 -0.02,-104.19 -0.36,-105.74 176.27 80
2 12/19/2021 20:10:21 -0.03,-104.20 0.66,-101.20 341.48 80
3 12/21/2021 08:32:08 0.01,-104.52 0.46,-106.48 223.69 80
4 12/22/2021 08:10:43 0.02,-104.51 -0.56,-101.94 293.02 80
5 12/23/2021 20:32:37 -0.00,-104.19 -0.66,-107.23 346.30 80
6 12/24/2021 20:16:31 -0.01,-104.19 0.31,-102.68 171.38 80
7 12/26/2021 08:38:19 -0.01,-104.53 0.75,-107.97 391.98 80
8 12/27/2021 08:16:54 0.00,-104.53 -0.27,-103.44 125.03 80
9 12/29/2021 20:22:42 0.00,-104.19 0.02,-104.18 2.51 80
